Change the Weather History Date:

Tuesday, October 30, 2012

  Actual Average Record
Temperature  
Mean Temperature 37 °F 50 °F  
Max Temperature 40 °F 60 °F 80 °F (1927)
Min Temperature 34 °F 41 °F 20 °F (1895)
Degree Days  
Heating Degree Days 28 15  
Month to date heating degree days 329 310  
Since 1 July heating degree days 415 379  
Cooling Degree Days 0 0  
Month to date cooling degree days 18 13  
Year to date cooling degree days 1439 1024  
Moisture  
Dew Point 35 °F    
Average Humidity 93    
Maximum Humidity 100    
Minimum Humidity 85    
Precipitation  
Precipitation 0.15 in 0.09 in 0.78 in (1878)
Month to date precipitation 3.95 2.52  
Year to date precipitation 30.80 33.05  
Snow  
Snow 0.60 in 0.00 in 3.60 in (1993)
Month to date snowfall 0.6 0.2  
Since 1 July snowfall 0.6 0.2  
Since 1 September snowfall 0.6 0.2  
Snow Depth 0.00 in    
Sea Level Pressure  
Sea Level Pressure 29.42 in    
Wind  
Wind Speed 21 mph (NW)    
Max Wind Speed 31 mph    
Max Gust Speed 44 mph    
Visibility 7 miles    
Events Rain , Snow    
T = Trace of Precipitation, MM = Missing Value Source: NWS Daily Summary

Daily Weather History Graph

Daily Weather History Graph

Search for Another Location

Airport or City:

Trip Planner

Search our weather history database for the weather conditions in past years. The results will help you decide how hot, cold, wet, or windy it might be!

Date:

Astronomy

Oct. 30, 2012 Rise Set
Actual Time 7:58 AM EDT 6:30 PM EDT
Civil Twilight 7:30 AM EDT 6:58 PM EDT
Nautical Twilight 6:58 AM EDT 7:30 PM EDT
Astronomical Twilight 6:27 AM EDT 8:02 PM EDT
Moon 6:59 PM EDT (10/30) 8:44 AM EDT (10/30)
Length of Visible Light 11h 28m
Length of Day
10h 32m
Full, 99% of the Moon is Illuminated
Oct 30
Full
Nov 6
Last Quarter
Nov 13
New
Nov 20
First Quarter
Nov 28
Full

Hourly Weather History & Observations

Time (EDT) Temp. Windchill Dew Point Humidity Pressure Visibility Wind Dir Wind Speed Gust Speed Precip Events Conditions
12:51 AM 37.0 °F 25.1 °F 34.0 °F 89% 29.52 in 10.0 mi NW 26.5 mph 41.4 mph 0.01 in Snow Light Snow
1:51 AM 36.0 °F 24.7 °F 33.1 °F 89% 29.50 in 10.0 mi NW 21.9 mph 41.4 mph 0.00 in Snow Light Snow
2:37 AM 35.6 °F 22.7 °F 33.8 °F 93% 29.45 in 8.0 mi NW 28.8 mph 39.1 mph 0.00 in Snow Light Snow
2:51 AM 35.6 °F 23.7 °F 33.8 °F 93% 29.44 in 8.0 mi NW 24.2 mph 39.1 mph N/A Snow Light Snow
3:00 AM 35.6 °F 23.7 °F 33.8 °F 93% 29.43 in 9.0 mi NW 24.2 mph 42.6 mph 0.00 in Snow Light Snow
3:41 AM 35.6 °F 23.0 °F 33.8 °F 93% 29.41 in 8.0 mi NW 27.6 mph 38.0 mph 0.00 in Snow Light Snow
3:51 AM 35.1 °F 23.3 °F 33.1 °F 92% 29.42 in 9.0 mi NW 23.0 mph 39.1 mph 0.00 in Snow Light Snow
4:51 AM 35.1 °F 23.0 °F 33.1 °F 92% 29.40 in 7.0 mi NW 24.2 mph 38.0 mph 0.00 in Snow Light Snow
5:37 AM 35.6 °F 23.4 °F 33.8 °F 93% 29.38 in 5.0 mi NW 25.3 mph 35.7 mph 0.00 in Snow Light Snow
5:51 AM 35.6 °F 22.7 °F 33.8 °F 93% 29.38 in 5.0 mi NW 28.8 mph 38.0 mph N/A Snow Light Snow
6:51 AM 35.6 °F 22.3 °F 33.8 °F 93% 29.36 in 7.0 mi NW 31.1 mph 43.7 mph N/A Snow Light Snow
7:13 AM 33.8 °F 20.8 °F 33.8 °F 100% 29.36 in 2.0 mi NW 26.5 mph 35.7 mph 0.00 in Snow Light Snow
7:20 AM 33.8 °F 21.0 °F 33.8 °F 100% 29.36 in 1.8 mi NW 25.3 mph 36.8 mph 0.00 in Snow Light Snow
7:26 AM 33.8 °F 21.0 °F 33.8 °F 100% 29.35 in 1.2 mi NW 25.3 mph 36.8 mph 0.00 in Snow Light Snow
7:46 AM 33.8 °F 21.6 °F 33.8 °F 100% 29.35 in 2.0 mi NW 23.0 mph 35.7 mph 0.04 in Snow Light Snow
7:47 AM 34.0 °F 21.5 °F 33.1 °F 96% 29.37 in 2.0 mi NW 24.2 mph 35.7 mph 0.04 in Snow Light Snow
7:49 AM 33.8 °F 21.9 °F 33.8 °F 100% 29.35 in 2.0 mi NW 21.9 mph 35.7 mph 0.00 in Snow Light Snow
7:59 AM 33.8 °F 22.2 °F 33.8 °F 100% 29.35 in 8.0 mi NW 20.7 mph 38.0 mph 0.00 in Snow Light Snow
8:14 AM 35.6 °F 23.7 °F 33.8 °F 93% 29.35 in 10.0 mi NW 24.2 mph 32.2 mph 0.01 in Snow Light Snow
8:51 AM 35.6 °F 24.5 °F 33.8 °F 93% 29.35 in 8.0 mi NW 20.7 mph 34.5 mph N/A Rain Light Rain
9:51 AM 36.0 °F 24.4 °F 33.1 °F 89% 29.35 in 8.0 mi NW 23.0 mph 38.0 mph 0.00 in Rain Light Rain
10:27 AM 35.6 °F 23.7 °F 33.8 °F 93% 29.35 in 10.0 mi NNW 24.2 mph 34.5 mph 0.00 in Rain , Snow Light Snow
10:51 AM 37.4 °F 26.4 °F 33.8 °F 87% 29.34 in 10.0 mi NW 23.0 mph 36.8 mph N/A Rain Light Rain
11:51 AM 37.0 °F 26.7 °F 35.1 °F 93% 29.37 in 8.0 mi NNW 19.6 mph 34.5 mph 0.00 in   Light Drizzle
12:51 PM 37.9 °F 27.3 °F 36.0 °F 93% 29.37 in 7.0 mi NW 21.9 mph 29.9 mph 0.00 in   Overcast
1:51 PM 37.9 °F 27.3 °F 36.0 °F 93% 29.38 in 9.0 mi NW 21.9 mph 26.5 mph N/A   Overcast
2:51 PM 37.4 °F 26.6 °F 37.4 °F 100% 29.38 in 6.0 mi NW 21.9 mph 26.5 mph N/A   Overcast
3:51 PM 39.0 °F 29.6 °F 37.0 °F 93% 29.42 in 8.0 mi NW 18.4 mph 26.5 mph 0.00 in Rain Light Rain
4:51 PM 39.0 °F 29.6 °F 37.0 °F 93% 29.43 in 4.0 mi WNW 18.4 mph 27.6 mph 0.00 in Rain Light Ice Pellets
5:06 PM 39.2 °F 30.2 °F 37.4 °F 93% 29.42 in 5.0 mi WNW 17.3 mph 24.2 mph 0.00 in Rain Light Rain
5:51 PM 39.0 °F 29.6 °F 37.9 °F 96% 29.46 in 5.0 mi WNW 18.4 mph 25.3 mph 0.01 in Rain Light Rain
6:51 PM 39.0 °F 29.6 °F 37.0 °F 93% 29.49 in 8.0 mi NW 18.4 mph 26.5 mph 0.02 in Rain Light Rain
7:51 PM 39.0 °F 29.6 °F 37.9 °F 96% 29.51 in 7.0 mi NW 18.4 mph 26.5 mph 0.00 in Rain Light Rain
8:38 PM 39.2 °F 30.8 °F 37.4 °F 93% 29.51 in 10.0 mi NW 15.0 mph 20.7 mph 0.00 in Rain Light Rain
8:51 PM 39.2 °F 31.2 °F 37.4 °F 93% 29.51 in 10.0 mi WNW 13.8 mph - N/A Rain Light Rain
9:51 PM 39.0 °F 29.6 °F 37.9 °F 96% 29.54 in 5.0 mi NW 18.4 mph 27.6 mph 0.01 in Rain Light Rain
10:00 PM 39.2 °F 31.2 °F 37.4 °F 93% 29.52 in 7.0 mi WNW 13.8 mph 27.6 mph 0.00 in Rain Light Rain
10:51 PM 39.0 °F 29.9 °F 37.9 °F 96% 29.55 in 10.0 mi WNW 17.3 mph 25.3 mph 0.03 in Rain Light Rain
11:51 PM 39.2 °F 32.5 °F 37.4 °F 93% 29.53 in 10.0 mi WNW 10.4 mph 19.6 mph N/A Rain Light Rain